SCP
0 0 0 0 0 0 0 0 0 1 1 1 1 0 0 0 0 0 0 0 0 0 0 0 0 0 0 0 0 0 0 0 0 0 0 0 0 0 0 0 0 0 0 0
0 0 0 0 0 0 0 0 0 1 1 1 1 0 0 0 0 0 0 0 0 0 0 0 0 0 0 0 0 0 0 0 0 0 0 0 0 0 0 0 0 0 0 0
0 0 0 0 0 0 0 0 0 1 1 0 0 0 0 0 0 0 0 0 0 0 0 0 0 0 0 0 0 0 0 0 0 0 0 0 0 0 0 0 0 0 0 0
0 0 0 0 0 0 0 0 0 0 0 0 0 0 0 0 0 0 0 0 0 0 0 0 0 0 0 0 0 0 0 0 0 0 0 0 0 0 0 0 0 0 0 0
0 0 0 0 0 0 0 0 0 0 0 0 0 0 0 0 0 0 0 0 0 0 0 0 0 0 0 0 0 0 0 0 0 0 0 0 0 0 0 0 0 0 0 0
0 0 0 0 0 0 0 0 0 0 0 0 0 0 0 0 0 0 0 0 0 0 0 0 0 0 0 0 0 0 0 0 0 0 0 0 0 0 0 0 0 0 0 0
0 0 0 0 0 0 0 0 0 0 0 0 0 0 0 0 0 0 0 0 0 0 0 0 0 0 0 0 0 0 0 0 0 0 0 0 0 0 0 0 0 0 0 0
0 0 0 0 0 0 0 0 0 0 0 0 0 0 0 0 0 0 0 0 0 0 0 0 0 0 0 0 0 0 0 0 0 0 0 0 0 0 0 0 0 0 0 0
0 0 0 0 0 0 0 0 0 0 0 0 0 0 0 0 0 0 0 0 0 0 0 0 0 0 0 0 0 0 0 0 0 0 0 0 0 0 0 0 0 0 0 0
0 0 0 0 0 0 0 0 0 0 0 0 0 0 0 0 0 0 0 0 -0 -0 -0 -0 -0 -0 0 0 0 0 0 0 0 0 0 0 0 0 0 0 0 0 0 0
0 0 0 0 0 0 0 0 0 0 0 0 0 0 0 0 0 0 0 -0 -0 -0 -0 -0 -0 -0 0 0 0 0 0 0 0 0 0 0 0 0 0 0 0 0 0 0
0 0 0 0 0 0 0 0 0 0 0 0 0 0 0 0 0 -0 -0 -0 -0 -0 -0 -0 0 0 0 0 0 0 0 0 0 0 0 0 0 0 0 0 -0 -0 0 0
0 0 0 0 0 0 0 0 0 0 0 0 0 0 -0 -0 -0 -0 -0 -0 -0 -0 -0 0 0 0 0 0 0 0 0 0 0 0 0 0 0 0 0 0 0 -0 -0 -0
0 0 0 0 0 0 0 0 0 0 0 0 0 -0 -0 -0 -0 -0 -0 -0 -0 -0 0 0 0 0 0 0 0 0 0 0 0 0 0 0 0 0 0 0 0 0 -0 -0
0 0 0 0 0 0 0 0 0 0 0 0 -0 -0 -0 -0 -0 -0 -0 -0 0 0 0 0 0 0 0 0 0 0 0 0 0 0 0 0 0 0 0 0 0 0 0 -0
0 0 0 0 0 0 0 0 0 0 0 -0 -0 -0 -0 -0 -0 -0 -0 0 0 0 0 0 0 0 0 0 0 0 0 0 0 0 0 0 0 0 0 0 0 0 0 0
0 0 0 0 0 -0 -0 -0 -0 -0 -0 -0 -0 -0 -0 -0 -0 -0 0 0 0 0 0 0 0 0 0 0 0 0 0 0 0 0 0 0 0 0 0 0 0 0 0 0
0 0 -0 -0 -0 -0 -0 -0 -0 -0 -0 -0 -0 -0 -0 -0 -0 0 0 0 0 0 0 0 0 0 0 0 0 0 0 0 0 0 0 0 0 0 0 0 0 0 0 0
-0 -0 -0 -0 -0 -0 -0 -0 -0 -0 -0 -0 -0 -0 -0 0 0 0 0 0 0 0 0 0 0 0 0 0 0 0 0 0 0 0 0 0 0 0 0 0 0 0 0 0
0 -0 -0 -0 -0 -0 -0 -0 -0 -0 -0 -0 -0 -0 0 0 0 0 0 0 0 0 0 0 0 0 0 0 0 0 0 0 0 0 0 0 0 0 0 0 0 0 0 0
0 -0 -0 -0 -0 -0 -0 -0 -0 -0 -0 -0 -0 0 0 0 0 0 0 0 0 0 0 0 0 0 0 0 0 0 0 0 0 0 0 0 0 0 0 0 0 0 0 0
0 0 -0 -0 -0 -0 -0 -0 -0 -0 -0 -0 -0 0 0 0 0 0 0 0 0 0 0 0 0 0 0 0 0 0 0 0 0 0 0 0 0 0 0 0 0 0 0 0
0 0 0 0 -0 -0 -0 -0 -0 -0 -0 -0 0 0 0 0 0 0 0 0 0 0 0 0 0 0 0 0 0 0 0 0 0 0 0 0 0 0 0 0 0 0 0 0
0 0 0 0 0 -0 -0 -0 -0 -0 -0 -0 0 0 0 0 0 0 0 0 0 0 0 0 0 0 0 0 0 0 0 0 0 0 0 0 0 0 0 0 0 0 0 0
0 0 0 0 0 -0 -0 -0 -0 -0 -0 0 0 0 0 0 0 0 0 0 0 0 0 0 0 0 0 0 0 0 0 0 0 0 0 0 0 0 0 0 0 0 0 0
0 0 0 0 0 0 -0 -0 -0 -0 -0 0 0 0 0 0 0 0 0 0 0 0 0 0 0 0 0 0 0 0 0 0 0 0 0 0 0 0 0 0 0 0 0 0
0 0 0 0 0 0 0 -0 -0 -0 -0 0 0 0 0 0 0 0 0 0 0 0 0 0 0 0 0 0 0 0 0 0 0 0 0 0 0 0 0 0 0 0 0 0
Wind_Speed
2 4 5 5 7 3 3 7 7 7 6 3 6 9 9 8 7 7 6 6 6 7 7 7 8 8 8 7 6 7 8 8 7 7 7 8 8 8 7 6 5 4 4 4
8 9 6 6 9 5 5 5 11 11 6 3 6 7 8 8 9 7 6 6 7 8 8 8 8 9 9 9 8 9 10 9 8 8 8 7 6 5 5 5 5 5 5 3
4 8 5 9 10 7 8 6 7 6 6 6 8 7 5 5 7 7 6 6 7 7 7 8 8 9 10 9 9 10 9 8 7 6 6 5 5 5 5 4 4 4 4 3
2 6 3 2 7 14 15 13 11 11 9 8 10 8 9 6 4 6 7 8 7 8 8 8 8 9 9 9 9 8 6 5 3 4 4 5 5 5 4 2 2 2 2 3
3 2 2 2 5 3 7 6 6 9 9 9 7 7 8 9 6 6 8 8 8 8 8 8 8 8 8 7 6 5 3 2 2 3 5 5 4 3 2 2 2 2 3 4
3 3 2 2 7 3 10 4 2 6 7 7 4 2 1 4 7 9 9 8 8 8 9 8 6 6 6 4 3 3 3 2 3 5 5 4 3 2 2 3 3 4 4 4
3 1 1 4 7 5 5 4 1 4 5 5 4 4 7 8 7 8 9 8 8 8 7 5 4 3 3 2 2 2 4 6 6 6 5 4 3 3 4 4 4 4 4 4
2 2 4 4 5 4 4 3 4 5 5 8 9 10 9 9 9 9 9 7 7 6 4 2 2 1 1 2 3 4 6 7 6 5 5 5 5 4 4 4 3 3 3 4
3 5 3 1 4 3 4 4 4 5 7 11 11 9 9 8 8 7 7 6 4 5 3 1 1 1 1 2 5 6 7 6 5 5 4 4 4 4 3 3 2 2 3 3
3 2 1 3 4 4 4 4 4 7 9 8 9 10 9 8 7 6 5 4 4 3 1 1 1 0 2 3 5 7 7 5 4 4 3 3 3 3 3 2 2 2 3 4
2 2 3 4 3 3 5 6 7 7 7 9 11 11 10 8 7 5 5 3 3 1 1 0 2 3 3 3 5 6 6 5 4 3 3 2 2 2 3 2 2 1 1 2
3 2 2 2 1 2 5 6 8 10 9 8 9 10 10 8 5 5 4 3 2 1 2 3 5 5 4 4 5 6 5 4 3 2 2 2 2 1 1 2 3 3 3 3
2 2 1 1 2 3 5 7 8 9 10 11 9 9 8 6 5 4 3 3 3 4 5 5 6 5 4 4 5 6 5 4 3 2 2 2 3 3 2 2 3 5 6 6
1 1 2 2 4 7 9 10 11 11 10 10 8 6 5 4 4 4 4 4 6 7 7 6 6 4 3 4 5 4 3 3 3 2 2 2 3 3 2 2 1 3 4 5
5 4 6 7 9 9 9 10 11 11 10 7 4 4 5 5 5 6 6 8 9 8 6 5 5 3 2 3 3 3 2 1 1 2 2 2 2 2 2 2 1 1 2 4
6 8 9 9 9 8 8 9 9 8 7 6 5 4 5 6 7 8 8 8 8 6 4 4 3 2 2 2 1 1 0 0 2 2 1 1 2 2 2 1 1 1 1 2
7 7 8 10 9 8 7 7 6 6 6 5 5 7 9 11 11 9 8 7 6 5 4 4 2 2 2 2 2 2 2 2 2 2 2 2 3 3 2 2 2 1 1 2
5 6 7 8 8 7 6 5 5 4 4 5 8 11 12 11 10 8 7 7 7 6 4 3 3 4 4 3 2 2 2 2 2 2 2 3 3 3 2 2 2 2 1 2
6 6 6 6 6 5 4 4 4 4 5 8 11 10 9 9 9 8 7 7 6 4 1 3 6 5 4 4 4 4 4 4 4 3 3 4 4 2 2 2 2 2 2 2
7 7 6 5 4 4 4 5 5 6 8 10 10 9 8 7 8 7 7 5 3 3 1 2 4 4 4 3 5 3 4 4 4 3 3 3 3 2 2 2 2 1 1 2
9 8 7 6 5 5 6 6 7 8 8 9 9 9 8 7 7 7 6 3 1 1 4 5 4 3 3 3 4 3 3 3 3 3 3 3 3 2 2 3 3 2 3 3
8 8 8 7 7 6 6 7 8 9 9 8 9 9 8 7 6 5 3 3 3 6 4 3 3 5 6 6 4 4 4 4 3 3 3 3 3 3 3 3 4 4 4 4
8 9 9 9 8 7 7 7 9 9 8 8 8 8 7 6 5 5 3 1 3 6 4 3 5 9 9 5 4 4 5 5 4 4 3 3 3 4 4 4 4 4 4 4
9 9 9 8 7 7 6 7 8 6 6 6 7 9 8 6 3 2 3 5 7 6 3 3 7 9 8 4 4 4 4 4 4 4 4 4 4 4 4 5 4 4 5 5
9 8 8 9 7 6 6 7 7 6 5 4 7 8 6 6 6 4 4 4 5 4 3 4 7 8 5 3 3 4 3 3 4 4 4 4 4 4 4 4 5 5 4 5
8 7 6 6 6 5 5 5 4 4 4 5 5 5 5 4 5 4 3 3 3 2 2 2 3 5 4 4 4 3 3 3 4 4 4 4 5 5 5 5 7 5 4 4
7 6 5 4 4 5 5 5 5 4 6 8 7 5 5 5 4 4 4 2 2 1 1 3 3 3 4 4 4 4 4 4 4 4 4 4 5 5 5 6 5 5 5 5
Wind_Direction
31 13 18 2 353 1 120 148 145 147 127 142 152 140 129 122 112 104 100 98 97 102 105 105 104 101 99 95 95 101 96 89 85 83 80 76 72 70 72 74 76 76 82 100
9 3 14 26 16 53 76 104 118 114 99 91 108 117 122 130 130 133 139 127 113 110 110 107 103 98 90 82 80 85 86 84 80 78 77 76 81 89 89 80 66 60 59 69
354 338 27 22 360 63 62 52 127 123 125 124 96 85 98 136 143 154 146 124 109 101 95 93 91 92 89 85 82 80 78 78 77 80 88 94 98 93 87 79 68 64 54 54
38 33 51 69 56 73 68 48 66 97 107 102 100 80 51 45 122 137 124 112 103 99 93 87 88 85 82 77 77 77 75 73 79 99 104 105 100 93 84 77 76 69 37 25
97 77 315 49 22 37 102 54 55 104 112 119 121 74 41 32 56 97 108 111 108 105 102 94 87 87 88 83 82 84 89 97 116 117 113 106 99 90 75 72 54 41 33 28
110 134 221 300 326 22 105 78 34 112 136 159 165 108 115 72 86 97 104 109 111 106 100 94 89 90 96 102 108 122 127 104 97 106 106 106 102 81 61 71 63 50 35 26
104 161 246 309 322 37 115 170 167 110 122 129 132 135 126 115 107 111 113 113 111 106 103 108 110 104 117 138 153 148 113 99 98 104 107 102 83 73 72 74 62 44 24 2
118 190 245 323 34 83 156 160 121 116 120 120 121 118 122 126 127 127 122 114 110 110 112 118 112 112 124 166 155 127 117 109 104 98 93 90 86 76 73 76 59 26 5 350
182 209 220 75 106 136 148 126 129 137 141 136 134 136 134 135 134 131 125 118 111 114 113 69 350 117 111 148 136 126 118 114 109 95 87 101 108 100 75 62 53 13 0 345
41 21 45 59 79 78 94 110 119 132 138 136 134 137 135 135 135 131 123 117 106 105 98 306 302 178 162 155 132 126 127 128 124 117 114 114 120 122 112 92 58 18 355 335
57 57 53 40 54 85 84 90 100 109 118 131 133 135 134 133 136 134 124 118 126 152 216 220 102 92 96 103 111 121 132 141 142 149 156 155 147 155 150 167 167 167 289 298
216 227 189 229 278 109 106 106 114 112 106 115 125 129 130 132 136 138 142 152 174 192 129 112 102 92 80 79 96 115 129 147 159 168 172 166 153 104 160 181 185 203 258 293
245 276 194 194 21 85 104 102 104 109 118 119 117 123 127 134 149 156 169 180 174 143 126 113 102 91 79 83 102 119 137 160 176 180 176 174 171 176 213 271 255 261 273 303
329 91 89 67 90 91 98 101 103 104 109 113 119 131 142 147 159 169 165 149 130 120 116 113 109 109 110 99 103 121 137 159 170 184 187 180 177 180 181 189 253 292 294 307
29 82 104 100 95 95 101 108 110 113 117 120 136 150 150 144 142 136 126 120 114 114 120 127 136 164 166 125 121 136 144 142 152 167 176 173 164 156 160 175 192 305 342 337
88 91 100 102 102 104 105 109 113 120 125 128 134 134 128 118 111 107 109 115 116 123 135 139 157 208 201 176 173 186 270 257 150 152 141 138 133 133 144 150 128 61 1 328
121 119 119 115 114 114 114 119 124 128 128 128 119 108 105 104 101 97 93 93 100 104 105 107 109 112 115 129 197 227 246 266 147 114 98 111 124 131 138 134 130 134 275 299
139 131 130 129 128 125 125 126 129 130 125 118 111 109 111 111 111 109 106 97 86 74 72 89 74 45 36 34 65 111 126 111 99 96 82 93 115 128 125 118 131 157 258 307
150 143 141 140 143 144 150 152 153 142 122 116 117 117 120 120 120 120 114 102 100 96 40 27 47 49 28 21 71 86 88 89 89 87 83 90 100 113 104 104 134 190 251 306
168 165 161 164 168 158 148 142 129 116 114 117 114 112 112 118 123 122 116 118 160 194 230 56 62 42 24 48 85 97 97 101 106 102 91 86 93 99 91 87 111 156 321 347
170 168 168 167 161 152 140 132 123 120 121 121 122 123 123 122 120 119 116 122 242 131 95 76 55 22 24 68 86 88 88 96 108 112 105 96 84 81 76 66 63 53 38 33
161 158 155 149 143 140 133 125 123 123 123 124 125 125 124 124 120 111 112 157 163 120 97 61 39 45 76 80 66 65 66 75 91 100 99 92 81 75 72 69 63 60 54 46
145 142 140 139 139 137 126 123 128 130 133 136 136 136 136 137 136 126 123 158 127 114 101 76 68 74 79 69 62 62 64 68 75 87 93 88 82 82 79 72 68 67 60 48
133 132 134 134 130 128 130 134 135 138 140 136 138 141 135 124 114 127 145 144 139 121 101 84 89 102 99 78 68 64 65 70 73 76 77 75 79 81 80 78 73 67 61 54
130 129 129 128 129 139 145 139 133 136 126 113 128 139 136 136 142 156 156 160 155 125 87 85 108 116 110 96 87 79 77 88 98 95 83 78 77 80 81 77 74 71 66 54
128 132 137 140 140 140 140 136 140 145 123 114 124 128 120 125 133 141 157 179 175 130 101 100 118 108 97 94 97 101 96 90 84 85 91 87 79 78 80 80 76 70 64 57
125 125 127 127 132 138 140 143 149 150 136 136 140 142 140 143 147 165 182 194 195 175 131 132 130 115 102 92 88 86 82 78 82 90 95 92 87 83 81 83 79 72 64 58